GW0486 Weather Reports


time (UTC)temp
C
wind
direction
speed
KPH
gust
KPH
rain 1hr
cm
rain 24hr
cm
rain mn
cm
humidity
%
barometer
mb
20260508135403 12 189 0.0 8.0 0.00 0.00 0.00 65 1011.9
20260508134503 12 239 0.0 12.9 0.00 0.00 0.00 64 1012.2
20260508133604 13 228 0.0 12.9 0.00 0.00 0.00 62 1011.9
20260508132724 13 214 0.0 3.2 0.00 0.00 0.00 64 1012.1
20260508131803 12 240 1.6 8.0 0.00 0.00 0.00 65 1011.9
20260508130904 12 172 0.0 8.0 0.00 0.00 0.00 71 1012.0
20260508130004 11 161 0.0 3.2 0.00 0.00 0.00 72 1011.9
20260508125403 11 160 0.0 3.2 0.00 0.00 0.00 75 1012.1
20260508124503 11 150 0.0 8.0 0.00 0.00 0.00 77 1011.8
20260508123624 10 103 0.0 3.2 0.00 0.00 0.00 77 1011.6
20260508122703 9 156 0.0 3.2 0.00 0.00 0.00 79 1011.8
20260508121803 9 108 0.0 3.2 0.00 0.00 0.00 79 1011.9
20260508120903 9 119 0.0 3.2 0.00 0.00 0.00 80 1011.6
20260508120009 8 158 0.0 3.2 0.00 0.00 0.00 80 1012.1
20260508115408 8 154 0.0 3.2 0.00 0.00 0.00 81 1011.6
20260508114508 7 0 0.0 0.0 0.00 0.00 0.00 83 1011.5
20260508113608 7 221 0.0 3.2 0.00 0.00 0.00 86 1011.4
20260508112708 6 0 0.0 0.0 0.00 0.00 0.00 89 1011.2
20260508111808 6 0 0.0 0.0 0.00 0.00 0.00 89 1011.4
20260508110908 5 0 0.0 0.0 0.00 0.00 0.00 91 1011.4
20260508110029 5 0 0.0 0.0 0.00 0.00 0.00 92 1011.5
20260508105407 5 0 0.0 0.0 0.00 0.00 0.00 93 1011.2
20260508104508 5 0 0.0 0.0 0.00 0.00 0.00 93 1011.1
20260508103608 5 0 0.0 0.0 0.00 0.00 0.00 93 1011.2
20260508102729 4 0 0.0 0.0 0.00 0.00 0.00 92 1010.8
20260508101808 4 0 0.0 0.0 0.00 0.00 0.00 92 1011.3
20260508100908 4 0 0.0 0.0 0.00 0.00 0.00 92 1010.9
20260508100028 4 0 0.0 0.0 0.00 0.00 0.00 92 1011.0
20260508095407 5 0 0.0 0.0 0.00 0.00 0.00 92 1011.0
20260508094508 5 0 0.0 0.0 0.00 0.00 0.00 92 1011.1
20260508093628 5 0 0.0 0.0 0.00 0.00 0.00 92 1011.4
20260508092707 5 0 0.0 0.0 0.00 0.00 0.00 91 1011.2
20260508091807 5 0 0.0 0.0 0.00 0.00 0.00 91 1011.1
20260508090907 5 0 0.0 0.0 0.00 0.00 0.00 91 1011.2
20260508090009 5 0 0.0 0.0 0.00 0.00 0.00 90 1011.0
20260508085407 5 0 0.0 0.0 0.00 0.00 0.00 90 1010.9
20260508084507 5 0 0.0 0.0 0.00 0.00 0.00 89 1011.3
20260508083607 6 0 0.0 0.0 0.00 0.00 0.00 89 1011.2
20260508082707 6 0 0.0 0.0 0.00 0.00 0.00 88 1011.1
20260508081807 6 0 0.0 0.0 0.00 0.00 0.00 87 1011.1
20260508080907 6 0 0.0 0.0 0.00 0.00 0.00 87 1011.1
20260508080007 6 0 0.0 0.0 0.00 0.00 0.00 87 1011.0
20260508075407 6 0 0.0 0.0 0.00 0.00 0.00 87 1011.1
20260508074528 7 0 0.0 0.0 0.00 0.00 0.00 86 1011.3
20260508073607 7 0 0.0 0.0 0.00 0.00 0.00 87 1011.0
20260508072707 7 0 0.0 0.0 0.00 0.00 0.00 86 1011.0
20260508071807 8 0 0.0 0.0 0.00 0.00 0.00 86 1011.1
20260508070907 8 0 0.0 0.0 0.00 0.00 0.00 87 1011.8
20260508070007 8 0 0.0 0.0 0.00 0.00 0.00 87 1011.8
20260508065407 8 0 0.0 0.0 0.00 0.00 0.00 86 1011.5
20260508064507 8 0 0.0 0.0 0.00 0.00 0.00 86 1011.4
20260508063628 8 0 0.0 0.0 0.00 0.00 0.00 84 1011.8
20260508062728 8 0 0.0 0.0 0.00 0.00 0.00 84 1012.0
20260508061807 8 0 0.0 0.0 0.00 0.00 0.00 83 1012.4
20260508060907 8 0 0.0 0.0 0.00 0.00 0.00 82 1012.5
20260508060007 8 0 0.0 0.0 0.00 0.00 0.00 80 1012.2
20260508055407 8 0 0.0 0.0 0.00 0.00 0.00 80 1012.2
20260508054507 7 0 0.0 0.0 0.00 0.00 0.00 81 1011.6
20260508053607 7 0 0.0 0.0 0.00 0.00 0.00 86 1011.5
20260508052707 7 0 0.0 0.0 0.00 0.00 0.00 87 1011.8
20260508051827 7 0 0.0 0.0 0.00 0.00 0.00 87 1011.5
20260508050907 7 0 0.0 0.0 0.00 0.00 0.00 87 1011.5
20260508050007 7 0 0.0 0.0 0.00 0.00 0.00 86 1011.8
20260508045406 7 0 0.0 0.0 0.00 0.00 0.00 86 1011.5
20260508044527 7 0 0.0 0.0 0.00 0.00 0.00 86 1011.6
20260508043607 7 0 0.0 0.0 0.00 0.00 0.00 86 1012.0
20260508042707 7 0 0.0 0.0 0.00 0.00 0.00 86 1011.9
20260508041806 7 0 0.0 0.0 0.00 0.00 0.00 85 1011.8
20260508040906 7 0 0.0 0.0 0.00 0.00 0.00 85 1011.6
20260508040006 7 0 0.0 0.0 0.00 0.00 0.00 84 1011.8
20260508035406 7 0 0.0 0.0 0.00 0.00 0.00 84 1011.6
20260508034506 7 0 0.0 0.0 0.00 0.00 0.00 84 1011.8
20260508033606 7 0 0.0 0.0 0.00 0.00 0.00 86 1011.9
20260508032706 7 0 0.0 0.0 0.00 0.00 0.00 87 1011.8
20260508031806 6 0 0.0 0.0 0.00 0.00 0.00 86 1011.8
20260508030906 6 0 0.0 0.0 0.00 0.00 0.00 86 1012.0
20260508030006 6 0 0.0 0.0 0.00 0.00 0.00 84 1011.6
20260508025406 6 0 0.0 0.0 0.00 0.00 0.00 84 1011.6
20260508024506 6 0 0.0 0.0 0.00 0.00 0.00 83 1011.8
20260508023606 6 0 0.0 0.0 0.00 0.00 0.00 82 1011.6
20260508022706 6 0 0.0 0.0 0.00 0.00 0.00 81 1011.4
20260508021827 6 0 0.0 0.0 0.00 0.00 0.00 81 1011.3
20260508020907 7 0 0.0 0.0 0.00 0.00 0.00 79 1011.8
20260508020006 7 0 0.0 0.0 0.00 0.00 0.00 79 1011.5
20260508015406 7 0 0.0 0.0 0.00 0.00 0.00 78 1011.5
20260508014506 7 0 0.0 0.0 0.00 0.00 0.00 77 1011.6
20260508013606 7 0 0.0 0.0 0.00 0.00 0.00 74 1011.5
20260508012727 7 0 0.0 0.0 0.00 0.00 0.00 73 1011.5
20260508011806 8 0 0.0 0.0 0.00 0.00 0.00 69 1011.4
20260508010906 8 0 0.0 0.0 0.00 0.00 0.00 67 1011.3
20260508010006 8 0 0.0 0.0 0.00 0.00 0.00 67 1011.1
20260508005406 9 0 0.0 0.0 0.00 0.00 0.00 65 1011.2
20260508004506 10 0 0.0 0.0 0.00 0.00 0.00 63 1011.2
20260508003606 10 0 0.0 0.0 0.00 0.00 0.00 59 1011.2
20260508002705 11 0 0.0 0.0 0.00 0.00 0.00 58 1010.9
20260508001806 11 0 0.0 0.0 0.00 0.00 0.00 54 1010.9
20260508000926 12 0 0.0 0.0 0.00 0.00 0.00 52 1011.1
20260508000026 12 225 0.0 3.2 0.00 0.00 0.00 49 1011.1
20260507235406 12 225 0.0 3.2 0.00 0.00 0.00 50 1010.8
20260507234506 12 316 0.0 3.2 0.00 0.00 0.00 52 1010.7
20260507233605 12 235 0.0 8.0 0.00 0.00 0.00 46 1010.7
20260507232705 13 292 1.6 12.9 0.00 0.00 0.00 47 1010.8
20260507231826 13 279 0.0 8.0 0.00 0.00 0.00 47 1010.6
20260507230926 13 296 0.0 8.0 0.00 0.00 0.00 46 1010.6
20260507230006 13 308 1.6 12.9 0.00 0.00 0.00 46 1010.9
20260507225405 13 299 1.6 12.9 0.00 0.00 0.00 48 1010.6
20260507224526 13 307 1.6 12.9 0.00 0.00 0.00 46 1010.9
20260507223605 13 307 3.2 12.9 0.00 0.00 0.00 50 1011.3
20260507222726 13 296 3.2 16.1 0.00 0.00 0.00 45 1011.2
20260507221805 14 301 3.2 16.1 0.00 0.00 0.00 46 1011.0
20260507220905 14 299 3.2 12.9 0.00 0.00 0.00 45 1011.0
20260507220005 14 294 3.2 12.9 0.00 0.00 0.00 46 1010.9
20260507215405 13 284 3.2 12.9 0.00 0.00 0.00 46 1010.9
20260507214505 13 305 3.2 12.9 0.00 0.00 0.00 47 1010.7
20260507213605 14 297 3.2 16.1 0.00 0.00 0.00 50 1010.8
20260507212705 13 309 1.6 8.0 0.00 0.00 0.00 45 1010.7
20260507211805 14 298 3.2 12.9 0.00 0.00 0.00 44 1010.8
20260507210905 14 296 3.2 12.9 0.00 0.00 0.00 46 1010.6
20260507210005 14 313 3.2 24.1 0.00 0.00 0.00 46 1010.6
20260507205426 14 295 3.2 24.1 0.00 0.00 0.00 44 1010.7
20260507204505 13 306 3.2 12.9 0.00 0.00 0.00 46 1010.8
20260507203605 15 278 4.8 16.1 0.00 0.00 0.00 45 1010.4
20260507202705 15 303 4.8 16.1 0.00 0.00 0.00 46 1010.6
20260507201805 15 310 3.2 16.1 0.00 0.00 0.00 46 1010.8
20260507200926 15 298 4.8 16.1 0.00 0.00 0.00 45 1010.8
20260507200005 15 301 4.8 16.1 0.00 0.00 0.00 45 1010.7
20260507195405 15 307 4.8 20.9 0.00 0.00 0.00 44 1010.7
20260507194505 15 304 4.8 20.9 0.00 0.00 0.00 44 1010.7
20260507193605 15 307 4.8 24.1 0.00 0.00 0.00 46 1011.1
20260507192704 15 303 4.8 20.9 0.00 0.00 0.00 42 1011.0
20260507191805 15 320 3.2 20.9 0.00 0.00 0.00 45 1010.8
20260507190904 15 268 3.2 12.9 0.00 0.00 0.00 49 1011.0
20260507190005 15 283 4.8 20.9 0.00 0.00 0.00 50 1011.0
20260507185405 15 292 4.8 16.1 0.00 0.00 0.00 52 1011.2
20260507184504 15 306 3.2 12.9 0.00 0.00 0.00 51 1011.1
20260507183604 15 304 3.2 20.9 0.00 0.00 0.00 47 1011.0
20260507182704 15 306 3.2 16.1 0.00 0.00 0.00 50 1010.9
20260507181825 15 300 4.8 16.1 0.00 0.00 0.00 55 1011.1
20260507180925 15 302 4.8 20.9 0.00 0.00 0.00 48 1011.0
20260507180004 15 299 3.2 12.9 0.00 0.00 0.00 56 1011.0
20260507175425 15 294 3.2 16.1 0.00 0.00 0.00 52 1010.9
20260507174525 15 278 3.2 20.9 0.00 0.00 0.00 50 1011.0
20260507173604 15 273 3.2 16.1 0.00 0.00 0.00 49 1011.4
20260507172704 14 292 4.8 12.9 0.00 0.00 0.00 51 1011.4
20260507171804 15 285 4.8 16.1 0.00 0.00 0.00 48 1011.5
20260507170904 14 271 3.2 16.1 0.00 0.00 0.00 48 1011.6
20260507170004 15 338 3.2 16.1 0.00 0.00 0.00 50 1011.9
20260507165404 14 300 3.2 16.1 0.00 0.00 0.00 47 1011.8
20260507164504 14 310 3.2 16.1 0.00 0.00 0.00 45 1011.9
20260507163604 14 315 3.2 12.9 0.00 0.00 0.00 47 1012.0
20260507162705 13 312 4.8 16.1 0.00 0.00 0.00 46 1012.0
20260507161804 15 298 1.6 12.9 0.00 0.00 0.00 48 1011.8
20260507160904 14 282 3.2 12.9 0.00 0.00 0.00 49 1011.9
20260507160004 14 276 3.2 12.9 0.00 0.00 0.00 47 1011.9
20260507155404 14 267 3.2 16.1 0.00 0.00 0.00 47 1011.5
20260507154504 14 261 3.2 12.9 0.00 0.00 0.00 46 1011.9
20260507153604 15 248 1.6 12.9 0.00 0.00 0.00 45 1011.6
20260507152704 15 233 1.6 12.9 0.00 0.00 0.00 51 1011.5
20260507151804 13 299 1.6 16.1 0.00 0.00 0.00 54 1011.5
20260507150925 15 167 1.6 8.0 0.00 0.00 0.00 54 1011.4
20260507150004 13 306 1.6 12.9 0.00 0.00 0.00 51 1011.6
20260507145403 13 270 1.6 12.9 0.00 0.00 0.00 53 1012.0
20260507144504 13 271 1.6 8.0 0.00 0.00 0.00 56 1011.8
20260507143625 12 296 1.6 8.0 0.00 0.00 0.00 59 1011.9
20260507142703 11 283 1.6 8.0 0.00 0.00 0.00 59 1011.8
20260507141803 11 308 1.6 12.9 0.00 0.00 0.00 59 1011.9
20260507140904 11 316 1.6 12.9 0.00 0.00 0.00 60 1011.9
20260507140004 10 301 1.6 12.9 0.00 0.00 0.00 62 1011.8